This demonstration page uses our WeatherBlox Daily Observations layout. Learn more.

Left ArrowRight Arrow

39.08367, -84.50855

Hourly Observations for April 28, 2017

Temp ( °F °C ) Dew Point ( °F °C ) Humidity (%) Winds ( mph kmh ) Pressure ( in mb ) Visibility ( mi km ) Precip ( " mm )
12:53 am 00:53 Clear 49 9.4 49 9.4 100 100 N N/A 29.91 1013 10 16 N/A
1:53 am 01:53 Clear 47 8.3 47 8.3 100 100 N N/A 29.94 1014 10 16 N/A
2:23 am 02:23 Clear with Mist and Fog 47 8.3 47 8.3 100 100 N N/A 29.94 1014 2 3 N/A
2:33 am 02:33 Clear with Mist and Fog 47 8.3 47 8.3 100 100 N N/A 29.94 1014 3 5 N/A
2:53 am 02:53 Clear with Mist and Fog 47 8.3 47 8.3 100 100 N N/A 29.96 1015 3 4 N/A
3:03 am 03:03 Clear with Mist and Fog 46 8 46 8 100 100 N N/A 29.97 1015 2 2 N/A
3:20 am 03:20 Clear with Mist and Fog 46 8 46 8 100 100 N N/A 29.97 1015 3 5 N/A
3:40 am 03:40 Clear with Mist and Fog 46 8 46 8 100 100 N N/A 30.00 1016 2 3 N/A
3:53 am 03:53 Clear with Mist and Fog 47 8.3 47 8.3 100 100 N N/A 29.98 1015 1 2 N/A
4:04 am 04:04 Mostly Cloudy with Mist and Fog 45 7 45 7 100 100 N N/A 29.97 1015 1 1 N/A
4:15 am 04:15 Mostly Clear with Mist and Fog 45 7.2 45 7.2 100 100 NE 5 7 29.97 1015 1 2 N/A
4:18 am 04:18 Mostly Clear with Mist and Fog 45 7 45 7 100 100 NNE 5 7 29.97 1015 3 5 N/A
4:53 am 04:53 Clear with Mist and Fog 47 8.3 47 8.3 100 100 N N/A 29.98 1015 6 10 N/A
5:53 am 05:53 Clear with Mist and Fog 47 8.3 47 8.3 100 100 NNE 3 6 29.98 1015 5 8 N/A
6:39 am 06:39 Clear with Mist and Fog 45 7.2 45 7.2 100 100 N N/A 30.00 1016 2 3 N/A
6:53 am 06:53 Sunny 47 8.3 47 8.3 100 100 N 3 6 30.02 1017 10 16 N/A
7:53 am 07:53 Sunny 50 10 49 9.4 96 96 W 5 7 30.05 1018 10 16 N/A
8:53 am 08:53 Mostly Cloudy 52 11.1 50 10 93 93 NE 3 6 30.03 1017 8 13 N/A
9:53 am 09:53 Sunny 56 13.3 50 10 81 81 E 6 9 30.02 1017 10 16 N/A
10:53 am 10:53 Sunny 60 15.6 51 10.6 72 72 ESE 8 13 30.00 1016 10 16 N/A
11:53 am 11:53 Sunny 65 18.3 53 11.7 66 66 SE 5 7 30.00 1016 10 16 N/A
12:53 pm 12:53 Sunny 66 18.9 53 11.7 63 63 N N/A 29.99 1016 10 16 N/A
1:53 pm 13:53 Partly Cloudy 68 20 56 13.3 65 65 SSW 3 6 29.99 1016 10 16 N/A
2:53 pm 14:53 Mostly Sunny 71 21.7 57 13.9 61 61 E 6 9 29.97 1015 10 16 N/A
3:53 pm 15:53 Mostly Sunny 72 22.2 58 14.4 61 61 E 6 9 29.93 1014 10 16 N/A
4:53 pm 16:53 Mostly Cloudy 74 23.3 60 15.6 62 62 VRB 6 9 29.91 1013 10 16 N/A
5:29 pm 17:29 Cloudy with Thunderstorms 71 21.7 59 15 66 66 NE 7 11 29.91 1013 10 16 N/A
5:53 pm 17:53 Mostly Cloudy 72 22.2 60 15.6 66 66 ENE 8 13 29.88 1012 10 16 N/A
6:53 pm 18:53 Cloudy with Light Rain 71 21.7 61 16.1 71 71 NE 5 7 29.85 1011 10 16 N/A
7:53 pm 19:53 Cloudy 66 18.9 65 18.3 96 96 N N/A 29.84 1011 10 16 N/A
8:31 pm 20:31 Cloudy with Nearby Thunderstorms 67 19.4 64 17.8 91 91 N N/A 29.88 1012 10 16 0.01 0.25
8:53 pm 20:53 Cloudy with Light Rain 66 18.9 64 17.8 93 93 E 6 9 29.84 1011 10 16 0.07 1.78
9:11 pm 21:11 Cloudy with Nearby Thunderstorms 66 18.9 63 17.2 90 90 N N/A 29.83 1010 7 11 0.03 0.76
9:40 pm 21:40 Cloudy with Thunderstorms 66 19 63 17 88 88 VRB 5 7 29.88 1012 10 16 N/A
9:53 pm 21:53 Cloudy with Thunderstorms 66 18.9 62 16.7 87 87 N 16 26 29.87 1012 10 16 0.04 1.02
10:17 pm 22:17 Cloudy with Strong Thunderstorms 62 16.7 62 16.7 100 100 N 14 22 29.91 1013 2 3 0.20 5.08
10:29 pm 22:29 Cloudy with Thunderstorms 62 16.7 62 16.7 100 100 ESE 9 15 29.91 1013 3 4 0.32 8.13
10:36 pm 22:36 Cloudy with Thunderstorms 63 17 63 17 100 100 E 8 13 29.91 1013 5 8 N/A
10:53 pm 22:53 Cloudy with Thunderstorms 62 16.7 62 16.7 100 100 NNE 6 9 29.95 1014 7 11 0.39 9.91
11:19 pm 23:19 Cloudy with Nearby Thunderstorms 62 16.7 62 16.7 100 100 N N/A 29.91 1013 7 11 0.02 0.51
11:26 pm 23:26 Cloudy with Thunderstorms 62 16.7 62 16.7 100 100 NW 3 6 29.91 1013 7 11 0.02 0.51
11:53 pm 23:53 Mostly Cloudy with Thunderstorms 62 16.7 62 16.7 100 100 N N/A 29.91 1013 9 14 0.02 0.51

Powered by AerisWeather